Hourly Data Report for May 02, 2012

All times are specified in Local Standard Time (LST). Add 1 hour to adjust for Daylight Saving Time where and when it is observed.

GANDER INTL A
NEWFOUNDLAND

48°56'13.000" N
54°34'05.000" W
151.20 m
8401703
71803
YQX

Download Data

Hourly Data (May 2012)
Hourly Data Report for May 2, 2012
Temp Definition
°C
Dew Point Temp Definition
°C
Rel Hum Definition
%
Wind Dir Definition
10's deg

Wind Spd Definition
km/h
Visibility Definition
km
Stn Press Definition
kPa
Hmdx Definition


Wind Chill Definition


Weather Definition


TIME
00:30 Legend Double Dagger -3.1 -3.9 94 34 13 10.0 100.53   -8 LegendNANA
01:30 Legend Double Dagger -3.7 -4.8 92 35 11 10.0 100.51   -8 LegendNANA
02:30 Legend Double Dagger -3.3 -4.6 91 34 13 10.0 100.50   -8 Mostly Cloudy
03:30 Legend Double Dagger -2.7 -4.9 85 35 22 10.0 100.46   -9 LegendNANA
04:30 Legend Double Dagger -2.9 -5.2 84 35 16 10.0 100.48   -8 LegendNANA
05:30 Legend Double Dagger -3.1 -5.3 85 33 19 10.0 100.47   -9 Mainly Clear
06:30 Legend Double Dagger -1.8 -4.3 83 33 20 10.0 100.45   -8 LegendNANA
07:30 Legend Double Dagger -0.6 -4.5 75 34 24 10.0 100.44   -7 LegendNANA
08:30 Legend Double Dagger 0.3 -5.7 64 35 23 10.0 100.42     Mostly Cloudy
09:30 Legend Double Dagger 0.7 -5.6 63 35 27 10.0 100.40     LegendNANA
10:30 Legend Double Dagger 2.4 -5.3 57 34 27 10.0 100.36     LegendNANA
11:30 Legend Double Dagger 3.8 -4.9 53 34 34 10.0 100.27     Mostly Cloudy
12:30 Legend Double Dagger 2.3 -4.9 59 33 32 10.0 100.22     LegendNANA
13:30 Legend Double Dagger 2.1 -4.2 63 34 29 10.0 100.17     LegendNANA
14:30 Legend Double Dagger 1.3 -3.6 70 33 30 10.0 100.10     Snow Showers
15:30 Legend Double Dagger 0.4 -2.3 82 33 26 6.4 100.09     Snow Showers
16:30 Legend Double Dagger 1.0 -1.7 82 33 35 10.0 99.99     Snow Showers
17:30 Legend Double Dagger 1.5 -1.1 83 34 29 9.7 99.91     Snow Showers
18:30 Legend Double Dagger 0.6 -0.9 90 34 35 4.0 99.83     Drizzle,Snow Grains,Fog
19:30 Legend Double Dagger 0.6 -0.1 95 34 45 3.2 99.75     Drizzle,Fog
20:30 Legend Double Dagger 0.5 -0.2 95 34 44 4.0 99.70     Rain,Fog
21:30 Legend Double Dagger 0.5 -0.1 96 34 35 4.0 99.66     Rain,Fog
22:30 Legend Double Dagger 0.5 -0.1 96 35 37 4.0 99.58     Rain,Fog
23:30 Legend Double Dagger 0.5 -0.1 96 35 38 3.2 99.56     Rain,Fog

Notes on Data Quality.

Legend

  • E = Estimated
  • M = Missing
  • NA = Not Available
  • ‡ = Partner data that is not subject to review by the National Climate Archives
Date modified: